Ana Sayfa
METAR-TAF:

METAR-TAF

Havaalanları :

Jim Hogg County Airport

Hebbronville, Teksas, Amerika Birleşik Devletleri

Enlem: 27-20N, Boylam: 098-44W, yükseklik: 202 m

Güncel hava durumu gözlemi

Rapor saat 21:35 UTC de 18 dakika önce yapıldı.
Rüzgar kuzey/kuzeydoğudan 11 kt
Sıcaklık 25°C
Nem 19%
Basınç 1010 hPa
Görüş mesafesi: 16.1 km
Açık gökyüzü

METAR: KHBV 242135Z AUTO 03011KT 10SM CLR 25/00 A2983 RMK AO2 T02540000

Saat: 15:53 (21:53 UTC)


TAF: eksik

4.000'den fazla havaalanı için hava durumu gözlemleri ve tahminleri (METAR ve TAF raporları).

Kullanılabilir istasyonlar harita üzerinde sarı ve kırmızı noktalarla gösterilir.

İstasyonun adını görmek için fareyi noktanın üzerinde gezdirin.

Sonrasında hava gözlem ve tahminlerini görmek için tıklayın.

Haritayı değiştirmek için: yaklaştırmak için siyah artı işaretli yeşil düğmeye ve uzaklaştırmak için de eksi işaretli düğmeye hızla tıklayın; bitişik haritalar için yeşil okları kullanın.


METAR-TAF: